Starlink 32196

operational
NORAD ID: 60430 Int'l Des: 2024-144 Owner: SPXS Country: US Constellation: starlink
LEOCIRCULAR

Über Starlink 32196

Beschreibung wird geladen...

Live-Position

3D-Globus wird geladen...

Nächste Überflüge

Höhenverlauf

Altitude vs Time

uPlot chart will show altitude changes over time

Zweizeiliger Elementsatz

1 60430U 24144F 25350.97262059 -.00001046 00000-0 -23181-4 0 9995
2 60430 53.1604 241.4277 0001526 87.5139 272.6036 15.30209067 76640
Epoch: 16. Dez. 2025 • Age: 8 hours

Aktueller Status

Höhe 493.7 km
Geschwindigkeit 7.62 km/s
Subsatellitenpunkt -50.59°S, 14.09°W
Startdatum 12. Aug. 2024
Alter 1.3 years
Typ internet

Technische Details

Klassifizierung Payload
Masse 730.00 kg
Trockenmasse 700.00 kg
Gesamtmasse 730.00 kg
Länge 0.30 m
Durchmesser 4.10 m
Spannweite 29.00 m
Form Box + pan
Hersteller SPXS
Bus-Typ Starlink V2M
Phasenstatus In Orbit
Besitzer/Staat SPXS/US

Große Konstellationen

Loading constellations...